Regional Weather Roundup
Issued by NWS Portland, ME

Current Version | Previous Version | Text Only | Print | Product List | Glossary Off
Versions: 1 2 3 4 5 6 7 8 9 10 11 12 13 14 15 16 17 18 19 20 21 22 23 24 25 26 27 28 29 30 31 32 33 34 35 36 37 38 39 40 41 42 43 44 45 46 47 48 49 50
000 ASUS41 KGYX 172310 RWRGYX WEATHER ROUNDUP FOR MAINE AND NEW HAMPSHIRE NATIONAL WEATHER SERVICE GRAY ME 600 PM EST FRI NOV 17 2017 MEZ002-005-006-010-012-015-018-020-021-024-026-027-029-180000- MAINE CITY SKY/WX TMP DP RH WIND PRES REMARKS PORTLAND PTCLDY 32 17 54 VRB5 29.91R SANFORD CLEAR 31 20 63 W13 29.92R BAR HARBOR CLOUDY 30 22 72 NW9G20 29.80R WISCASSET CLEAR 31 20 63 VRB7 29.89R ROCKLAND CLEAR 31 20 63 NW13G23 29.84R FRYEBURG CLEAR 28 18 66 S3 29.89R LEWISTONAUBURN CLEAR 29 19 66 NW15 29.89R WCI 18 AUGUSTA CLEAR 29 17 61 NW7 29.87R WATERVILLE CLEAR 28 19 69 W8 29.82R BANGOR PTCLDY 30 18 60 NW18G30 29.80S WCI 18 GREENVILLE N/A 22 17 81 NW24G37 29.74R WCI 5 MILLINOCKET PTCLDY 27 18 69 NW15G26 29.77S WCI 15 HOULTON CLOUDY 31 22 69 NW18G26 29.68R WCI 19 PRESQUE ISLE FLURRIES 28 22 78 NW15G28 29.70R WCI 16 FRENCHVILLE CLOUDY 22 17 81 NW21G33 29.67R WCI 6 CARIBOU FLURRIES 27 20 75 NW18G33 29.67R WCI 14 $$ NHZ002-005-008-009-011-012-014-180000- NEW HAMPSHIRE CITY SKY/WX TMP DP RH WIND PRES REMARKS PORTSMOUTH CLEAR 33 17 52 W15G22 29.93R ROCHESTER CLEAR 31 18 58 W6G18 29.91R NASHUA CLEAR 36 18 48 W5 29.97R MANCHESTER CLEAR 36 17 46 NW5 29.94S CONCORD CLEAR 32 19 58 NW13 29.95R LACONIA CLEAR 28 19 69 W14G22 29.94R WCI 17 PLYMOUTH FAIR 28 19 68 NW13G22 29.95S WCI 17 BERLIN CLOUDY 24 17 74 VRB7 29.93R WHITEFIELD CLOUDY 24 16 71 W5 30.00R JAFFREY CLEAR 35 15 44 SW7 29.95R KEENE CLEAR 31 16 54 CALM 29.99R LEBANON CLEAR 30 17 58 N9 30.00R MT WASHINGTON MOCLDY 10 -15 31 NW68G84 N/A WCI -19 $$ VTZ005-007-008-180000- VERMONT CITY SKY/WX TMP DP RH WIND PRES REMARKS ST JOHNSBURY N/A 24 17 74 MISG 30.02R MONTPELIER PTCLDY 24 17 74 CALM 30.05R BURLINGTON CLEAR 28 16 60 N5 30.09R $$ MAZ007-012-024-CTZ003-RIZ002-NYZ038-NYZ072-180000- SOUTHERN NEW ENGLAND AND NY CITY SKY/WX TMP DP RH WIND PRES REMARKS BOSTON CLEAR 40 19 43 NW12 29.97R WORCESTER CLEAR 34 16 47 W10 29.95R NANTUCKET CLEAR 43 24 47 NW14G23 29.95R PROVIDENCE CLEAR 39 21 48 W12 30.00R HARTFORD PTCLDY 34 17 50 NW6 30.04R ALBANY PTCLDY 33 17 51 W12 30.10S NEW YORK CITY PTCLDY 46 20 35 NW18 30.07R $$ ANZ081-ANZ082-ANZ150-NHZ014-MEZ023>029-180000- COASTAL MARINE OBSERVATIONS STATION/POSITION TIME TEMP WIND PRES WAVE AIR SEA DIR/SP/G HT/PER (UTC) (F) (DEG/KT/KT) (MB) (FT/S) MOUNT DESERT ROC 2300 35 290/ 31/ 36 1008.5R MATINICUS ROCK 2300 35 320/ 32/ 39 1009.1R ISLE OF SHOALS 2300 35 290/ 25/ 28 1012.7R JEFFREYS LEDGE 2236 53 N/A 6/ 6 GEORGES BANK BUO 2150 48 54 1007.2 12/ 9 $$ .............KEY.............. WCI - WIND CHILL TC - TEMPERATURE IN CELSIUS VSB - VISIBILITY IN MILES HX - HEAT INDEX FAIR- INDICATES FEW OR NO CLOUDS BELOW 12,000 FT, WITH NO SIGNIFICANT WEATHER AND/OR OBSTRUCTIONS TO VISIBILITY.

USA.gov is the U.S. government's official web portal to all federal, state and local government web resources and services.